User: anonymous   Login
Location: Unspecified
(0.0000°N, 0.0000°E)
Time: 13:59:56
(UTC+00:00)
Language:

WGS F2 (USA 204) - Orbit

View from above orbital plane
View from above orbital plane
View from above satellite
View from above satellite

Ground track
Ground track

The orbit data is extracted from the following two-line orbital elements,

1 34713U 09017A   18086.25073803 0.00000000  00000-0  00000-0 0    09
2 34713   0.0200 335.0076 0005459  23.2329 336.8168  1.00270000    05
Epoch (UTC): 27 March 2018 06:01:03
Eccentricity: 0.0005459
inclination: 0.0200°
perigee height: 35764 km
apogee height: 35810 km
right ascension of ascending node: 335.0076°
argument of perigee: 23.2329°
revolutions per day: 1.00270000
mean anomaly at epoch: 336.8168°
orbit number at epoch: 0

The dashed part of the orbit path shows where the satellite is in the earth's shadow,  

DLR